Location: Malvern Link
(52.1333°N, 2.3000°W)
Time: 15:08:02
(UTC+00:00)

SO-50 - Pass Details

Date: 09 July 2022
Orbit: 585 x 698 km, 64.6° (Epoch: 11 August)

Event Time Altitude Azimuth Distance (km) Brightness Sun altitude
Rises 22:56:08 0° 223° (SW) 2,966 ? -13.7°
Reaches altitude 10° 22:58:24 10° 224° (SW) 2,076 ? -13.8°
Maximum altitude 23:03:09 86° 312° (NW) 685 ? -14.0°
Drops below altitude 10° 23:08:04 10° 43° (NE) 2,148 ? -14.2°
Sets 23:10:26 0° 44° (NE) 3,078 ? -14.3°
